| time (UTC) | temp F | wind direction | speed MPH | gust MPH | rain 1hr in | rain 24hr in | rain mn in | humidity % | barometer mb |
| 20260509081002 | 64 | 74 | 4.0 | 6.0 | 0.00 | 0.00 | 0.00 | 73 | 1015.6 |
| 20260509075801 | 63 | 45 | 7.0 | 11.0 | 0.00 | 0.00 | 0.00 | 76 | 1019.0 |
| 20260509074559 | 62 | 55 | 5.0 | 9.0 | 0.00 | 0.00 | 0.00 | 80 | 1019.0 |
| 20260509073518 | 60 | 35 | 3.0 | 5.0 | 0.00 | 0.00 | 0.00 | 83 | 1019.0 |
| 20260509072158 | 59 | 32 | 2.0 | 4.0 | 0.00 | 0.00 | 0.00 | 86 | 1018.2 |
| 20260509070957 | 58 | 68 | 2.0 | 3.0 | 0.00 | 0.00 | 0.00 | 88 | 1018.2 |
| 20260509065755 | 56 | 57 | 4.0 | 5.0 | 0.00 | 0.00 | 0.00 | 90 | 1017.3 |
| 20260509064554 | 54 | 51 | 4.0 | 5.0 | 0.00 | 0.00 | 0.00 | 91 | 1015.6 |
| 20260509063353 | 53 | 68 | 4.0 | 5.0 | 0.00 | 0.00 | 0.00 | 93 | 1015.6 |
| 20260509062211 | 52 | 53 | 4.0 | 5.0 | 0.00 | 0.00 | 0.00 | 93 | 1016.5 |
| 20260509060951 | 51 | 56 | 4.0 | 7.0 | 0.00 | 0.00 | 0.00 | 94 | 1015.6 |
| 20260509055749 | 50 | 45 | 3.0 | 5.0 | 0.00 | 0.00 | 0.00 | 94 | 1019.0 |
| 20260509054549 | 49 | 45 | 4.0 | 6.0 | 0.00 | 0.00 | 0.00 | 94 | 1015.6 |
| 20260509053347 | 49 | 45 | 3.0 | 4.0 | 0.00 | 0.00 | 0.00 | 94 | 1015.6 |
| 20260509052147 | 49 | 45 | 2.0 | 3.0 | 0.00 | 0.00 | 0.00 | 94 | 1015.6 |
| 20260509050945 | 49 | 45 | 3.0 | 4.0 | 0.00 | 0.00 | 0.00 | 94 | 1015.6 |
| 20260509045744 | 48 | 23 | 1.0 | 1.0 | 0.00 | 0.00 | 0.00 | 93 | 1015.6 |
| 20260509044543 | 47 | 23 | 2.0 | 3.0 | 0.00 | 0.00 | 0.00 | 92 | 1015.6 |
| 20260509043341 | 47 | 65 | 0.0 | 1.0 | 0.00 | 0.00 | 0.00 | 92 | 1015.6 |
| 20260509042141 | 47 | 45 | 1.0 | 2.0 | 0.00 | 0.00 | 0.00 | 91 | 1015.6 |
| 20260509040939 | 47 | 45 | 0.0 | 1.0 | 0.00 | 0.00 | 0.00 | 91 | 1015.6 |
| 20260509035758 | 47 | 23 | 0.0 | 1.0 | 0.00 | 0.00 | 0.00 | 91 | 1015.6 |
| 20260509034537 | 47 | 45 | 0.0 | 1.0 | 0.00 | 0.00 | 0.00 | 90 | 1015.6 |
| 20260509033336 | 48 | 45 | 0.0 | 1.0 | 0.00 | 0.00 | 0.00 | 90 | 1015.6 |
| 20260509032135 | 48 | 45 | 1.0 | 2.0 | 0.00 | 0.00 | 0.00 | 90 | 1015.6 |
| 20260509030934 | 49 | 32 | 2.0 | 3.0 | 0.00 | 0.00 | 0.00 | 89 | 1015.6 |
| 20260509025753 | 49 | 23 | 1.0 | 2.0 | 0.00 | 0.00 | 0.00 | 89 | 1015.6 |
| 20260509024551 | 49 | 41 | 1.0 | 2.0 | 0.00 | 0.00 | 0.00 | 89 | 1015.6 |
| 20260509023329 | 49 | 36 | 2.0 | 3.0 | 0.00 | 0.00 | 0.00 | 88 | 1015.6 |
| 20260509022718 | 49 | 45 | 2.0 | 3.0 | 0.00 | 0.00 | 0.00 | 88 | 1015.6 |
| 20260509021517 | 49 | 34 | 2.0 | 3.0 | 0.00 | 0.00 | 0.00 | 88 | 1017.3 |
| 20260509020317 | 49 | 34 | 2.0 | 3.0 | 0.00 | 0.00 | 0.00 | 87 | 1015.6 |
| 20260509015115 | 49 | 45 | 2.0 | 3.0 | 0.00 | 0.00 | 0.00 | 86 | 1015.6 |
| 20260509014014 | 49 | 45 | 1.0 | 2.0 | 0.00 | 0.00 | 0.00 | 86 | 1015.6 |
| 20260509012813 | 50 | 40 | 1.0 | 2.0 | 0.00 | 0.00 | 0.00 | 86 | 1015.6 |
| 20260509011612 | 50 | 45 | 2.0 | 3.0 | 0.00 | 0.00 | 0.00 | 85 | 1018.2 |
| 20260509010431 | 50 | 28 | 2.0 | 3.0 | 0.00 | 0.00 | 0.00 | 85 | 1019.0 |
| 20260509005210 | 50 | 45 | 2.0 | 2.0 | 0.00 | 0.00 | 0.00 | 84 | 1016.5 |
| 20260509004007 | 51 | 45 | 2.0 | 5.0 | 0.00 | 0.00 | 0.00 | 84 | 1015.6 |
| 20260509002806 | 51 | 45 | 2.0 | 3.0 | 0.00 | 0.00 | 0.00 | 84 | 1018.2 |
| 20260509001625 | 51 | 45 | 1.0 | 3.0 | 0.00 | 0.00 | 0.00 | 83 | 1017.3 |
| 20260509000425 | 51 | 45 | 2.0 | 3.0 | 0.00 | 0.00 | 0.00 | 82 | 1019.0 |
| 20260508235203 | 51 | 45 | 2.0 | 3.0 | 0.00 | 0.00 | 0.00 | 81 | 1019.0 |
| 20260508234021 | 52 | 61 | 2.0 | 2.0 | 0.00 | 0.00 | 0.00 | 81 | 1019.0 |
| 20260508232801 | 52 | 45 | 1.0 | 2.0 | 0.00 | 0.00 | 0.00 | 80 | 1019.0 |
| 20260508231559 | 53 | 45 | 1.0 | 2.0 | 0.00 | 0.00 | 0.00 | 80 | 1019.0 |
| 20260508230357 | 53 | 56 | 1.0 | 3.0 | 0.00 | 0.00 | 0.00 | 79 | 1019.0 |
| 20260508225156 | 54 | 45 | 3.0 | 3.0 | 0.00 | 0.00 | 0.00 | 78 | 1019.0 |
| 20260508223955 | 54 | 59 | 1.0 | 3.0 | 0.00 | 0.00 | 0.00 | 77 | 1019.0 |
| 20260508222753 | 54 | 29 | 2.0 | 4.0 | 0.00 | 0.00 | 0.00 | 77 | 1017.3 |
| 20260508221552 | 55 | 45 | 3.0 | 4.0 | 0.00 | 0.00 | 0.00 | 77 | 1019.0 |
| 20260508220351 | 55 | 45 | 2.0 | 2.0 | 0.00 | 0.00 | 0.00 | 77 | 1019.0 |
| 20260508215218 | 55 | 31 | 3.0 | 3.0 | 0.00 | 0.00 | 0.00 | 76 | 1019.0 |
| 20260508213957 | 56 | 45 | 2.0 | 3.0 | 0.00 | 0.00 | 0.00 | 75 | 1018.2 |
| 20260508212756 | 56 | 45 | 2.0 | 4.0 | 0.00 | 0.00 | 0.00 | 75 | 1018.2 |
| 20260508211555 | 57 | 45 | 4.0 | 5.0 | 0.00 | 0.00 | 0.00 | 74 | 1015.6 |
| 20260508210354 | 57 | 45 | 3.0 | 5.0 | 0.00 | 0.00 | 0.00 | 74 | 1015.6 |
| 20260508205153 | 57 | 45 | 2.0 | 3.0 | 0.00 | 0.00 | 0.00 | 73 | 1015.6 |
| 20260508203952 | 58 | 45 | 3.0 | 4.0 | 0.00 | 0.00 | 0.00 | 72 | 1015.6 |
| 20260508202751 | 58 | 45 | 3.0 | 4.0 | 0.00 | 0.00 | 0.00 | 71 | 1015.6 |
| 20260508201610 | 59 | 45 | 4.0 | 7.0 | 0.00 | 0.00 | 0.00 | 70 | 1015.6 |
| 20260508200349 | 59 | 45 | 3.0 | 5.0 | 0.00 | 0.00 | 0.00 | 69 | 1015.6 |
| 20260508195148 | 59 | 45 | 4.0 | 7.0 | 0.00 | 0.00 | 0.00 | 68 | 1015.6 |
| 20260508193947 | 60 | 45 | 3.0 | 4.0 | 0.00 | 0.00 | 0.00 | 67 | 1015.6 |
| 20260508192806 | 61 | 45 | 3.0 | 3.0 | 0.00 | 0.00 | 0.00 | 66 | 1015.6 |
| 20260508191545 | 62 | 45 | 3.0 | 5.0 | 0.00 | 0.00 | 0.00 | 65 | 1015.6 |
| 20260508190343 | 62 | 45 | 3.0 | 5.0 | 0.00 | 0.00 | 0.00 | 64 | 1015.6 |
| 20260508185202 | 63 | 45 | 3.0 | 5.0 | 0.00 | 0.00 | 0.00 | 63 | 1015.6 |
| 20260508184002 | 63 | 45 | 4.0 | 6.0 | 0.00 | 0.00 | 0.00 | 62 | 1015.6 |
| 20260508182740 | 64 | 56 | 6.0 | 7.0 | 0.00 | 0.00 | 0.00 | 61 | 1015.6 |
| 20260508181539 | 64 | 45 | 4.0 | 6.0 | 0.00 | 0.00 | 0.00 | 61 | 1015.6 |
| 20260508180338 | 64 | 45 | 6.0 | 11.0 | 0.00 | 0.00 | 0.00 | 60 | 1015.6 |
| 20260508175137 | 65 | 45 | 4.0 | 7.0 | 0.00 | 0.00 | 0.00 | 59 | 1015.6 |
| 20260508173956 | 65 | 45 | 6.0 | 9.0 | 0.00 | 0.00 | 0.00 | 57 | 1015.6 |
| 20260508172735 | 65 | 40 | 4.0 | 5.0 | 0.00 | 0.00 | 0.00 | 57 | 1015.6 |
| 20260508171534 | 65 | 40 | 6.0 | 7.0 | 0.00 | 0.00 | 0.00 | 57 | 1015.6 |
| 20260508170333 | 66 | 34 | 8.0 | 9.0 | 0.00 | 0.00 | 0.00 | 56 | 1015.6 |
| 20260508165132 | 66 | 45 | 7.0 | 8.0 | 0.00 | 0.00 | 0.00 | 56 | 1015.6 |
| 20260508163951 | 67 | 51 | 7.0 | 9.0 | 0.00 | 0.00 | 0.00 | 55 | 1015.6 |
| 20260508162730 | 67 | 45 | 4.0 | 6.0 | 0.00 | 0.00 | 0.00 | 55 | 1015.6 |
| 20260508161529 | 67 | 45 | 7.0 | 9.0 | 0.00 | 0.00 | 0.00 | 55 | 1015.6 |
| 20260508160348 | 67 | 34 | 7.0 | 9.0 | 0.00 | 0.00 | 0.00 | 56 | 1015.6 |
| 20260508155127 | 67 | 14 | 4.0 | 6.0 | 0.00 | 0.00 | 0.00 | 56 | 1015.6 |
| 20260508153926 | 67 | 45 | 6.0 | 9.0 | 0.00 | 0.00 | 0.00 | 56 | 1015.6 |
| 20260508152725 | 66 | 60 | 7.0 | 11.0 | 0.00 | 0.00 | 0.00 | 56 | 1015.6 |
| 20260508151524 | 67 | 53 | 4.0 | 7.0 | 0.00 | 0.00 | 0.00 | 56 | 1015.6 |
| 20260508150323 | 67 | 45 | 9.0 | 11.0 | 0.00 | 0.00 | 0.00 | 55 | 1015.6 |
| 20260508145121 | 68 | 45 | 6.0 | 9.0 | 0.00 | 0.00 | 0.00 | 55 | 1015.6 |
| 20260508143921 | 66 | 31 | 7.0 | 9.0 | 0.00 | 0.00 | 0.00 | 57 | 1015.6 |
| 20260508142720 | 66 | 26 | 7.0 | 9.0 | 0.00 | 0.00 | 0.00 | 55 | 1015.6 |
| 20260508141518 | 66 | 45 | 3.0 | 6.0 | 0.00 | 0.00 | 0.00 | 54 | 1015.6 |
| 20260508140316 | 67 | 48 | 5.0 | 7.0 | 0.00 | 0.00 | 0.00 | 55 | 1015.6 |
| 20260508135116 | 67 | 40 | 8.0 | 11.0 | 0.00 | 0.00 | 0.00 | 53 | 1015.6 |
| 20260508134034 | 67 | 45 | 4.0 | 7.0 | 0.00 | 0.00 | 0.00 | 53 | 1015.6 |
| 20260508132833 | 68 | 56 | 8.0 | 9.0 | 0.00 | 0.00 | 0.00 | 53 | 1015.6 |
| 20260508131612 | 68 | 23 | 3.0 | 5.0 | 0.00 | 0.00 | 0.00 | 53 | 1015.6 |
| 20260508130411 | 69 | 55 | 8.0 | 9.0 | 0.00 | 0.00 | 0.00 | 51 | 1015.6 |
| 20260508125230 | 70 | 156 | 3.0 | 6.0 | 0.00 | 0.00 | 0.00 | 49 | 1015.6 |
| 20260508124009 | 70 | 68 | 6.0 | 8.0 | 0.00 | 0.00 | 0.00 | 50 | 1015.6 |
| 20260508122808 | 70 | 151 | 5.0 | 8.0 | 0.00 | 0.00 | 0.00 | 47 | 1015.6 |
| 20260508121627 | 72 | 120 | 6.0 | 9.0 | 0.00 | 0.00 | 0.00 | 47 | 1013.9 |
| 20260508120405 | 71 | 45 | 9.0 | 12.0 | 0.00 | 0.00 | 0.00 | 50 | 1015.6 |
| 20260508115205 | 71 | 74 | 4.0 | 5.0 | 0.00 | 0.00 | 0.00 | 52 | 1015.6 |
| 20260508114004 | 70 | 68 | 6.0 | 8.0 | 0.00 | 0.00 | 0.00 | 56 | 1015.6 |
| 20260508112801 | 68 | 68 | 2.0 | 5.0 | 0.00 | 0.00 | 0.00 | 56 | 1015.6 |
| 20260508111601 | 69 | 56 | 6.0 | 9.0 | 0.00 | 0.00 | 0.00 | 59 | 1015.6 |
| 20260508110359 | 68 | 45 | 5.0 | 9.0 | 0.00 | 0.00 | 0.00 | 61 | 1015.6 |
| 20260508105218 | 67 | 38 | 3.0 | 11.0 | 0.00 | 0.00 | 0.00 | 62 | 1015.6 |
| 20260508103957 | 67 | 33 | 7.0 | 9.0 | 0.00 | 0.00 | 0.00 | 64 | 1015.6 |
| 20260508102756 | 65 | 27 | 7.0 | 9.0 | 0.00 | 0.00 | 0.00 | 63 | 1015.6 |
| 20260508101555 | 65 | 45 | 9.0 | 12.0 | 0.00 | 0.00 | 0.00 | 65 | 1015.6 |
| 20260508100413 | 65 | 40 | 6.0 | 10.0 | 0.00 | 0.00 | 0.00 | 66 | 1015.6 |
| 20260508095212 | 64 | 56 | 6.0 | 9.0 | 0.00 | 0.00 | 0.00 | 69 | 1015.6 |
| 20260508093951 | 63 | 48 | 5.0 | 7.0 | 0.00 | 0.00 | 0.00 | 72 | 1015.6 |
| 20260508092750 | 63 | 73 | 5.0 | 5.0 | 0.00 | 0.00 | 0.00 | 75 | 1015.6 |
| 20260508091549 | 62 | 54 | 5.0 | 7.0 | 0.00 | 0.00 | 0.00 | 78 | 1015.6 |
| 20260508090348 | 61 | 40 | 6.0 | 7.0 | 0.00 | 0.00 | 0.00 | 80 | 1015.6 |
| 20260508085147 | 60 | 65 | 2.0 | 3.0 | 0.00 | 0.00 | 0.00 | 82 | 1015.6 |
| 20260508083946 | 59 | 45 | 5.0 | 7.0 | 0.00 | 0.00 | 0.00 | 84 | 1015.6 |
| 20260508082745 | 59 | 45 | 4.0 | 5.0 | 0.00 | 0.00 | 0.00 | 86 | 1015.6 |